Year,Month,Day,Hour,Minute,Value (Times are PST for temperature in C)
2009,07,21,00,00,20.70
2009,07,21,00,01,20.70
2009,07,21,00,02,20.70
2009,07,21,00,03,20.60
2009,07,21,00,04,20.60
2009,07,21,00,05,20.60
2009,07,21,00,06,20.60
2009,07,21,00,07,20.50
2009,07,21,00,08,20.40
2009,07,21,00,09,20.40
2009,07,21,00,10,20.40
2009,07,21,00,11,20.40
2009,07,21,00,12,20.40
2009,07,21,00,13,20.30
2009,07,21,00,14,20.30
2009,07,21,00,15,20.30
2009,07,21,00,16,20.30
2009,07,21,00,17,20.20
2009,07,21,00,18,20.20
2009,07,21,00,19,20.20
2009,07,21,00,20,20.10
2009,07,21,00,21,20.10
2009,07,21,00,22,20.10
2009,07,21,00,23,20.00
2009,07,21,00,24,19.90
2009,07,21,00,25,19.90
2009,07,21,00,26,19.90
2009,07,21,00,27,19.80
2009,07,21,00,28,19.80
2009,07,21,00,29,19.70
2009,07,21,00,30,19.70
2009,07,21,00,31,19.70
2009,07,21,00,32,19.60
2009,07,21,00,33,19.60
2009,07,21,00,34,19.50
2009,07,21,00,35,19.50
2009,07,21,00,36,19.40
2009,07,21,00,37,19.40
2009,07,21,00,38,19.40
2009,07,21,00,39,19.30
2009,07,21,00,40,19.30
2009,07,21,00,41,19.20
2009,07,21,00,42,19.20
2009,07,21,00,43,19.20
2009,07,21,00,44,19.10
2009,07,21,00,45,19.10
2009,07,21,00,46,19.10
2009,07,21,00,47,19.10
2009,07,21,00,48,19.10
2009,07,21,00,49,19.00
2009,07,21,00,50,19.00
2009,07,21,00,51,18.90
2009,07,21,00,52,18.90
2009,07,21,00,53,18.90
2009,07,21,00,54,18.90
2009,07,21,00,55,18.90
2009,07,21,00,56,18.90
2009,07,21,00,57,18.90
2009,07,21,00,58,18.80
2009,07,21,00,59,18.80
2009,07,21,01,00,18.80
2009,07,21,01,01,18.80
2009,07,21,01,02,18.80
2009,07,21,01,03,18.80
2009,07,21,01,04,18.80
2009,07,21,01,05,18.80
2009,07,21,01,06,18.80
2009,07,21,01,07,18.80
2009,07,21,01,08,18.80
2009,07,21,01,09,18.80
2009,07,21,01,10,18.80
2009,07,21,01,11,18.80
2009,07,21,01,12,18.80
2009,07,21,01,13,18.80
2009,07,21,01,14,18.70
2009,07,21,01,15,18.70
2009,07,21,01,16,18.70
2009,07,21,01,17,18.70
2009,07,21,01,18,18.70
2009,07,21,01,19,18.70
2009,07,21,01,20,18.60
2009,07,21,01,21,18.60
2009,07,21,01,22,18.60
2009,07,21,01,23,18.60
2009,07,21,01,24,18.60
2009,07,21,01,25,18.60
2009,07,21,01,26,18.50
2009,07,21,01,27,18.50
2009,07,21,01,28,18.40
2009,07,21,01,29,18.40
2009,07,21,01,30,18.40
2009,07,21,01,31,18.30
2009,07,21,01,32,18.30
2009,07,21,01,33,18.30
2009,07,21,01,34,18.30
2009,07,21,01,35,18.20
2009,07,21,01,36,18.20
2009,07,21,01,37,18.20
2009,07,21,01,38,18.20
2009,07,21,01,39,18.10
2009,07,21,01,40,18.10
2009,07,21,01,41,18.10
2009,07,21,01,42,18.10
2009,07,21,01,43,18.10
2009,07,21,01,44,18.00
2009,07,21,01,45,18.00
2009,07,21,01,46,18.00
2009,07,21,01,47,17.90
2009,07,21,01,48,17.90
2009,07,21,01,49,17.90
2009,07,21,01,50,17.90
2009,07,21,01,51,17.80
2009,07,21,01,52,17.80
2009,07,21,01,53,17.80
2009,07,21,01,54,17.80
2009,07,21,01,55,17.70
2009,07,21,01,56,17.70
2009,07,21,01,57,17.70
2009,07,21,01,58,17.70
2009,07,21,01,59,17.60
2009,07,21,02,00,17.60
2009,07,21,02,01,17.60
2009,07,21,02,02,17.50
2009,07,21,02,03,17.50
2009,07,21,02,04,17.40
2009,07,21,02,05,17.40
2009,07,21,02,06,17.40
2009,07,21,02,07,17.40
2009,07,21,02,08,17.30
2009,07,21,02,09,17.30
2009,07,21,02,10,17.30
2009,07,21,02,11,17.30
2009,07,21,02,12,17.30
2009,07,21,02,13,17.20
2009,07,21,02,14,17.20
2009,07,21,02,15,17.20
2009,07,21,02,16,17.20
2009,07,21,02,17,17.20
2009,07,21,02,18,17.10
2009,07,21,02,19,17.10
2009,07,21,02,20,17.10
2009,07,21,02,21,17.10
2009,07,21,02,22,17.10
2009,07,21,02,23,17.00
2009,07,21,02,24,16.90
2009,07,21,02,25,16.90
2009,07,21,02,26,16.90
2009,07,21,02,27,16.90
2009,07,21,02,28,16.90
2009,07,21,02,29,16.90
2009,07,21,02,30,16.80
2009,07,21,02,31,16.80
2009,07,21,02,32,16.80
2009,07,21,02,33,16.80
2009,07,21,02,34,16.70
2009,07,21,02,35,16.70
2009,07,21,02,36,16.70
2009,07,21,02,37,16.70
2009,07,21,02,38,16.70
2009,07,21,02,39,16.70
2009,07,21,02,40,16.60
2009,07,21,02,41,16.60
2009,07,21,02,42,16.60
2009,07,21,02,43,16.60
2009,07,21,02,44,16.60
2009,07,21,02,45,16.60
2009,07,21,02,46,16.50
2009,07,21,02,47,16.50
2009,07,21,02,48,16.50
2009,07,21,02,49,16.50
2009,07,21,02,50,16.40
2009,07,21,02,51,16.40
2009,07,21,02,52,16.40
2009,07,21,02,53,16.40
2009,07,21,02,54,16.40
2009,07,21,02,55,16.40
2009,07,21,02,56,16.30
2009,07,21,02,57,16.30
2009,07,21,02,58,16.30
2009,07,21,02,59,16.30
2009,07,21,03,00,16.30
2009,07,21,03,01,16.30
2009,07,21,03,02,16.30
2009,07,21,03,03,16.30
2009,07,21,03,04,16.20
2009,07,21,03,05,16.20
2009,07,21,03,06,16.20
2009,07,21,03,07,16.20
2009,07,21,03,08,16.20
2009,07,21,03,09,16.20
2009,07,21,03,10,16.10
2009,07,21,03,11,16.10
2009,07,21,03,12,16.10
2009,07,21,03,13,16.10
2009,07,21,03,14,16.10
2009,07,21,03,15,16.10
2009,07,21,03,16,16.00
2009,07,21,03,17,16.00
2009,07,21,03,18,16.00
2009,07,21,03,19,16.00
2009,07,21,03,20,16.00
2009,07,21,03,21,15.90
2009,07,21,03,22,15.90
2009,07,21,03,23,15.90
2009,07,21,03,24,15.90
2009,07,21,03,25,15.90
2009,07,21,03,26,15.90
2009,07,21,03,27,15.90
2009,07,21,03,28,15.90
2009,07,21,03,29,15.90
2009,07,21,03,30,15.90
2009,07,21,03,31,15.80
2009,07,21,03,32,15.80
2009,07,21,03,33,15.80
2009,07,21,03,34,15.80
2009,07,21,03,35,15.80
2009,07,21,03,36,15.80
2009,07,21,03,37,15.80
2009,07,21,03,38,15.80
2009,07,21,03,39,15.80
2009,07,21,03,40,15.80
2009,07,21,03,41,15.80
2009,07,21,03,42,15.70
2009,07,21,03,43,15.70
2009,07,21,03,44,15.70
2009,07,21,03,45,15.70
2009,07,21,03,46,15.70
2009,07,21,03,47,15.70
2009,07,21,03,48,15.70
2009,07,21,03,49,15.70
2009,07,21,03,50,15.70
2009,07,21,03,51,15.60
2009,07,21,03,52,15.60
2009,07,21,03,53,15.60
2009,07,21,03,54,15.60
2009,07,21,03,55,15.60
2009,07,21,03,56,15.60
2009,07,21,03,57,15.50
2009,07,21,03,58,15.50
2009,07,21,03,59,15.50
2009,07,21,04,00,15.40
2009,07,21,04,01,15.40
2009,07,21,04,02,15.40
2009,07,21,04,03,15.40
2009,07,21,04,04,15.40
2009,07,21,04,05,15.40
2009,07,21,04,06,15.30
2009,07,21,04,07,15.30
2009,07,21,04,08,15.30
2009,07,21,04,09,15.30
2009,07,21,04,10,15.30
2009,07,21,04,11,15.30
2009,07,21,04,12,15.30
2009,07,21,04,13,15.30
2009,07,21,04,14,15.30
2009,07,21,04,15,15.20
2009,07,21,04,16,15.20
2009,07,21,04,17,15.20
2009,07,21,04,18,15.20
2009,07,21,04,19,15.20
2009,07,21,04,20,15.10
2009,07,21,04,21,15.10
2009,07,21,04,22,15.10
2009,07,21,04,23,15.10
2009,07,21,04,24,15.00
2009,07,21,04,25,15.00
2009,07,21,04,26,15.00
2009,07,21,04,27,15.00
2009,07,21,04,28,15.00
2009,07,21,04,29,15.00
2009,07,21,04,30,15.00
2009,07,21,04,31,15.00
2009,07,21,04,37,15.00
2009,07,21,04,38,15.00
2009,07,21,04,39,15.00
2009,07,21,04,40,15.00
2009,07,21,04,41,14.90
2009,07,21,04,42,14.90
2009,07,21,04,43,14.90
2009,07,21,04,44,14.90
2009,07,21,04,45,14.80
2009,07,21,04,46,14.80
2009,07,21,04,47,14.80
2009,07,21,04,48,14.80
2009,07,21,04,49,14.80
2009,07,21,04,50,14.80
2009,07,21,04,51,14.80
2009,07,21,04,52,14.80
2009,07,21,04,53,14.80
2009,07,21,04,54,14.70
2009,07,21,04,55,14.70
2009,07,21,04,56,14.70
2009,07,21,04,57,14.70
2009,07,21,04,58,14.70
2009,07,21,04,59,14.70
2009,07,21,05,00,14.70
2009,07,21,05,01,14.70
2009,07,21,05,02,14.70
2009,07,21,05,03,14.60
2009,07,21,05,04,14.60
2009,07,21,05,05,14.60
2009,07,21,05,06,14.60
2009,07,21,05,07,14.60
2009,07,21,05,08,14.60
2009,07,21,05,09,14.60
2009,07,21,05,10,14.50
2009,07,21,05,11,14.50
2009,07,21,05,12,14.50
2009,07,21,05,13,14.40
2009,07,21,05,14,14.40
2009,07,21,05,15,14.40
2009,07,21,05,16,14.40
2009,07,21,05,17,14.40
2009,07,21,05,18,14.40
2009,07,21,05,19,14.40
2009,07,21,05,20,14.40
2009,07,21,05,21,14.40
2009,07,21,05,22,14.40
2009,07,21,05,23,14.40
2009,07,21,05,24,14.30
2009,07,21,05,25,14.30
2009,07,21,05,26,14.30
2009,07,21,05,27,14.30
2009,07,21,05,28,14.30
2009,07,21,05,29,14.30
2009,07,21,05,30,14.30
2009,07,21,05,31,14.20
2009,07,21,05,32,14.20
2009,07,21,05,33,14.20
2009,07,21,05,34,14.20
2009,07,21,05,35,14.20
2009,07,21,05,36,14.20
2009,07,21,05,37,14.20
2009,07,21,05,38,14.20
2009,07,21,05,39,14.10
2009,07,21,05,40,14.10
2009,07,21,05,41,14.10
2009,07,21,05,42,14.10
2009,07,21,05,43,14.10
2009,07,21,05,44,14.10
2009,07,21,05,45,14.10
2009,07,21,05,46,14.10
2009,07,21,05,47,14.10
2009,07,21,05,48,14.10
2009,07,21,05,49,14.10
2009,07,21,05,50,14.10
2009,07,21,05,51,14.10
2009,07,21,05,52,14.10
2009,07,21,05,53,14.00
2009,07,21,05,54,14.00
2009,07,21,05,55,14.00
2009,07,21,05,56,14.00
2009,07,21,05,57,14.00
2009,07,21,05,58,14.00
2009,07,21,05,59,14.00
2009,07,21,06,00,14.00
2009,07,21,06,01,14.00
2009,07,21,06,02,14.00
2009,07,21,06,03,14.00
2009,07,21,06,04,13.90
2009,07,21,06,05,13.90
2009,07,21,06,06,13.90
2009,07,21,06,07,13.90
2009,07,21,06,08,13.90
2009,07,21,06,09,13.90
2009,07,21,06,10,13.90
2009,07,21,06,11,13.90
2009,07,21,06,12,13.90
2009,07,21,06,13,13.90
2009,07,21,06,14,13.90
2009,07,21,06,15,13.90
2009,07,21,06,16,13.90
2009,07,21,06,17,13.90
2009,07,21,06,18,13.90
2009,07,21,06,19,13.90
2009,07,21,06,20,14.00
2009,07,21,06,21,13.90
2009,07,21,06,22,14.00
2009,07,21,06,23,14.00
2009,07,21,06,24,14.00
2009,07,21,06,25,14.00
2009,07,21,06,26,14.00
2009,07,21,06,27,14.00
2009,07,21,06,28,14.10
2009,07,21,06,29,14.10
2009,07,21,06,30,14.10
2009,07,21,06,31,14.10
2009,07,21,06,32,14.10
2009,07,21,06,33,14.10
2009,07,21,06,34,14.10
2009,07,21,06,35,14.10
2009,07,21,06,36,14.20
2009,07,21,06,37,14.20
2009,07,21,06,38,14.20
2009,07,21,06,39,14.20
2009,07,21,06,40,14.30
2009,07,21,06,41,14.30
2009,07,21,06,42,14.30
2009,07,21,06,43,14.30
2009,07,21,06,44,14.40
2009,07,21,06,45,14.40
2009,07,21,06,46,14.50
2009,07,21,06,47,14.60
2009,07,21,06,48,14.60
2009,07,21,06,49,14.70
2009,07,21,06,50,14.80
2009,07,21,06,51,14.80
2009,07,21,06,52,14.90
2009,07,21,06,53,15.00
2009,07,21,06,54,15.00
2009,07,21,06,55,15.00
2009,07,21,06,56,15.10
2009,07,21,06,57,15.20
2009,07,21,06,58,15.20
2009,07,21,06,59,15.30
2009,07,21,07,00,15.40
2009,07,21,07,01,15.40
2009,07,21,07,02,15.60
2009,07,21,07,03,15.60
2009,07,21,07,04,15.70
2009,07,21,07,05,15.80
2009,07,21,07,06,15.80
2009,07,21,07,07,15.90
2009,07,21,07,08,16.10
2009,07,21,07,09,16.10
2009,07,21,07,10,16.20
2009,07,21,07,11,16.30
2009,07,21,07,12,16.30
2009,07,21,07,13,16.40
2009,07,21,07,14,16.40
2009,07,21,07,15,16.50
2009,07,21,07,16,16.60
2009,07,21,07,17,16.60
2009,07,21,07,18,16.60
2009,07,21,07,19,16.60
2009,07,21,07,20,16.60
2009,07,21,07,21,16.50
2009,07,21,07,22,16.50
2009,07,21,07,23,16.50
2009,07,21,07,24,16.50
2009,07,21,07,25,16.50
2009,07,21,07,26,16.50
2009,07,21,07,27,16.50
2009,07,21,07,28,16.50
2009,07,21,07,29,16.50
2009,07,21,07,30,16.60
2009,07,21,07,31,16.60
2009,07,21,07,32,16.60
2009,07,21,07,33,16.60
2009,07,21,07,34,16.60
2009,07,21,07,35,16.60
2009,07,21,07,36,16.70
2009,07,21,07,37,16.70
2009,07,21,07,38,16.80
2009,07,21,07,39,16.80
2009,07,21,07,40,16.80
2009,07,21,07,41,16.90
2009,07,21,07,42,16.90
2009,07,21,07,43,16.90
2009,07,21,07,44,17.10
2009,07,21,07,45,17.10
2009,07,21,07,46,17.10
2009,07,21,07,47,17.20
2009,07,21,07,48,17.20
2009,07,21,07,49,17.20
2009,07,21,07,50,17.20
2009,07,21,07,51,17.30
2009,07,21,07,52,17.30
2009,07,21,07,53,17.30
2009,07,21,07,54,17.30
2009,07,21,07,55,17.30
2009,07,21,07,56,17.30
2009,07,21,07,57,17.40
2009,07,21,07,58,17.40
2009,07,21,07,59,17.50
2009,07,21,08,00,17.60
2009,07,21,08,01,17.60
2009,07,21,08,02,17.60
2009,07,21,08,03,17.70
2009,07,21,08,04,17.80
2009,07,21,08,05,17.80
2009,07,21,08,06,17.80
2009,07,21,08,07,17.90
2009,07,21,08,08,17.90
2009,07,21,08,09,18.10
2009,07,21,08,10,18.10
2009,07,21,08,11,18.20
2009,07,21,08,12,18.20
2009,07,21,08,13,18.20
2009,07,21,08,14,18.20
2009,07,21,08,15,18.30
2009,07,21,08,16,18.30
2009,07,21,08,17,18.30
2009,07,21,08,18,18.30
2009,07,21,08,19,18.30
2009,07,21,08,20,18.20
2009,07,21,08,21,18.20
2009,07,21,08,22,18.20
2009,07,21,08,23,18.20
2009,07,21,08,24,18.20
2009,07,21,08,25,18.20
2009,07,21,08,26,18.20
2009,07,21,08,27,18.20
2009,07,21,08,28,18.30
2009,07,21,08,29,18.30
2009,07,21,08,30,18.30
2009,07,21,08,31,18.40
2009,07,21,08,32,18.40
2009,07,21,08,33,18.50
2009,07,21,08,34,18.60
2009,07,21,08,35,18.60
2009,07,21,08,36,18.60
2009,07,21,08,37,18.70
2009,07,21,08,38,18.80
2009,07,21,08,39,18.90
2009,07,21,08,40,18.90
2009,07,21,08,41,19.00
2009,07,21,08,42,19.10
2009,07,21,08,43,19.10
2009,07,21,08,44,19.20
2009,07,21,08,45,19.20
2009,07,21,08,46,19.30
2009,07,21,08,47,19.30
2009,07,21,08,48,19.40
2009,07,21,08,49,19.40
2009,07,21,08,50,19.60
2009,07,21,08,51,19.70
2009,07,21,08,52,19.80
2009,07,21,08,53,20.00
2009,07,21,08,54,20.10
2009,07,21,08,56,20.40
2009,07,21,08,58,20.60
2009,07,21,09,00,20.70
2009,07,21,09,02,20.80
2009,07,21,09,03,20.80
2009,07,21,09,04,20.80
2009,07,21,09,05,20.80
2009,07,21,09,06,20.80
2009,07,21,09,07,20.80
2009,07,21,09,08,20.80
2009,07,21,09,09,20.80
2009,07,21,09,10,20.80
2009,07,21,09,11,20.80
2009,07,21,09,12,20.80
2009,07,21,09,13,20.80
2009,07,21,09,14,20.80
2009,07,21,09,15,20.80
2009,07,21,09,16,20.90
2009,07,21,09,17,20.90
2009,07,21,09,18,20.90
2009,07,21,09,19,20.90
2009,07,21,09,20,20.90
2009,07,21,09,21,20.90
2009,07,21,09,22,20.90
2009,07,21,09,23,21.00
2009,07,21,09,24,21.10
2009,07,21,09,25,21.10
2009,07,21,09,26,21.20
2009,07,21,09,27,21.30
2009,07,21,09,28,21.30
2009,07,21,09,29,21.40
2009,07,21,09,30,21.50
2009,07,21,09,31,21.50
2009,07,21,09,32,21.60
2009,07,21,09,33,21.60
2009,07,21,09,34,21.60
2009,07,21,09,35,21.70
2009,07,21,09,36,21.70
2009,07,21,09,37,21.80
2009,07,21,09,38,21.80
2009,07,21,09,39,21.80
2009,07,21,09,40,21.80
2009,07,21,09,41,21.80
2009,07,21,09,42,21.90
2009,07,21,09,43,21.90
2009,07,21,09,44,22.00
2009,07,21,09,45,22.10
2009,07,21,09,46,22.20
2009,07,21,09,47,22.20
2009,07,21,09,48,22.30
2009,07,21,09,49,22.30
2009,07,21,09,50,22.40
2009,07,21,09,51,22.40
2009,07,21,09,52,22.60
2009,07,21,09,53,22.60
2009,07,21,09,54,22.70
2009,07,21,09,55,22.70
2009,07,21,09,56,22.70
2009,07,21,09,57,22.60
2009,07,21,09,58,22.70
2009,07,21,09,59,22.70
2009,07,21,10,00,22.70
2009,07,21,10,01,22.80
2009,07,21,10,02,22.80
2009,07,21,10,03,22.90
2009,07,21,10,04,22.90
2009,07,21,10,05,22.90
2009,07,21,10,06,22.90
2009,07,21,10,07,22.90
2009,07,21,10,08,23.00
2009,07,21,10,09,23.10
2009,07,21,10,10,23.10
2009,07,21,10,11,23.20
2009,07,21,10,12,23.20
2009,07,21,10,13,23.20
2009,07,21,10,14,23.30
2009,07,21,10,15,23.30
2009,07,21,10,16,23.40
2009,07,21,10,17,23.40
2009,07,21,10,18,23.40
2009,07,21,10,19,23.40
2009,07,21,10,20,23.40
2009,07,21,10,21,23.50
2009,07,21,10,22,23.60
2009,07,21,10,23,23.60
2009,07,21,10,24,23.70
2009,07,21,10,25,23.70
2009,07,21,10,26,23.70
2009,07,21,10,27,23.80
2009,07,21,10,28,23.80
2009,07,21,10,29,23.80
2009,07,21,10,30,23.90
2009,07,21,10,31,23.90
2009,07,21,10,32,23.90
2009,07,21,10,33,23.90
2009,07,21,10,34,23.90
2009,07,21,10,35,24.00
2009,07,21,10,36,24.10
2009,07,21,10,37,24.10
2009,07,21,10,38,24.10
2009,07,21,10,39,24.10
2009,07,21,10,40,24.10
2009,07,21,10,41,24.10
2009,07,21,10,42,24.10
2009,07,21,10,43,24.20
2009,07,21,10,44,24.20
2009,07,21,10,45,24.20
2009,07,21,10,46,24.20
2009,07,21,10,47,24.20
2009,07,21,10,48,24.20
2009,07,21,10,49,24.10
2009,07,21,10,50,24.10
2009,07,21,10,51,24.10
2009,07,21,10,52,24.10
2009,07,21,10,53,24.10
2009,07,21,10,54,24.10
2009,07,21,10,55,24.10
2009,07,21,10,56,24.10
2009,07,21,10,57,24.20
2009,07,21,10,58,24.20
2009,07,21,10,59,24.30
2009,07,21,11,00,24.30
2009,07,21,11,01,24.30
2009,07,21,11,02,24.40
2009,07,21,11,03,24.40
2009,07,21,11,04,24.40
2009,07,21,11,05,24.40
2009,07,21,11,06,24.50
2009,07,21,11,07,24.60
2009,07,21,11,08,24.70
2009,07,21,11,09,24.70
2009,07,21,11,10,24.80
2009,07,21,11,11,24.80
2009,07,21,11,12,24.90
2009,07,21,11,13,24.90
2009,07,21,11,14,24.90
2009,07,21,11,15,25.00
2009,07,21,11,16,25.00
2009,07,21,11,17,25.10
2009,07,21,11,18,25.10
2009,07,21,11,19,25.20
2009,07,21,11,20,25.20
2009,07,21,11,21,25.30
2009,07,21,11,22,25.30
2009,07,21,11,23,25.40
2009,07,21,11,24,25.40
2009,07,21,11,25,25.60
2009,07,21,11,26,25.60
2009,07,21,11,27,25.70
2009,07,21,11,28,25.80
2009,07,21,11,29,25.90
2009,07,21,11,30,25.90
2009,07,21,11,31,25.90
2009,07,21,11,32,25.90
2009,07,21,11,33,25.90
2009,07,21,11,34,25.90
2009,07,21,11,35,25.90
2009,07,21,11,36,25.90
2009,07,21,11,37,25.90
2009,07,21,11,38,25.90
2009,07,21,11,39,25.90
2009,07,21,11,40,25.90
2009,07,21,11,41,25.90
2009,07,21,11,42,26.10
2009,07,21,11,43,26.10
2009,07,21,11,44,26.10
2009,07,21,11,45,26.20
2009,07,21,11,46,26.20
2009,07,21,11,47,26.20
2009,07,21,11,48,26.20
2009,07,21,11,49,26.20
2009,07,21,11,50,26.30
2009,07,21,11,51,26.30
2009,07,21,11,52,26.30
2009,07,21,11,53,26.40
2009,07,21,11,54,26.60
2009,07,21,11,55,26.60
2009,07,21,11,56,26.70
2009,07,21,11,57,26.80
2009,07,21,11,58,26.90
2009,07,21,11,59,27.10
2009,07,21,12,00,27.10
2009,07,21,12,01,27.20
2009,07,21,12,02,27.20
2009,07,21,12,03,27.30
2009,07,21,12,04,27.40
2009,07,21,12,05,27.50
2009,07,21,12,06,27.60
2009,07,21,12,07,27.70
2009,07,21,12,08,27.70
2009,07,21,12,09,27.80
2009,07,21,12,10,27.90
2009,07,21,12,11,27.90
2009,07,21,12,12,28.00
2009,07,21,12,13,28.10
2009,07,21,12,14,28.20
2009,07,21,12,15,28.20
2009,07,21,12,16,28.10
2009,07,21,12,17,28.00
2009,07,21,12,18,27.90
2009,07,21,12,19,27.90
2009,07,21,12,20,27.90
2009,07,21,12,21,28.00
2009,07,21,12,22,28.10
2009,07,21,12,23,28.10
2009,07,21,12,24,28.20
2009,07,21,12,25,28.20
2009,07,21,12,26,28.20
2009,07,21,12,27,28.10
2009,07,21,12,28,28.10
2009,07,21,12,29,28.10
2009,07,21,12,30,28.20
2009,07,21,12,31,28.20
2009,07,21,12,32,28.30
2009,07,21,12,33,28.40
2009,07,21,12,34,28.40
2009,07,21,12,35,28.40
2009,07,21,12,36,28.40
2009,07,21,12,37,28.40
2009,07,21,12,38,28.40
2009,07,21,12,39,28.40
2009,07,21,12,40,28.40
2009,07,21,12,41,28.40
2009,07,21,12,42,28.30
2009,07,21,12,43,28.30
2009,07,21,12,44,28.40
2009,07,21,12,45,28.40
2009,07,21,12,46,28.40
2009,07,21,12,47,28.40
2009,07,21,12,48,28.40
2009,07,21,12,49,28.40
2009,07,21,12,50,28.50
2009,07,21,12,51,28.60
2009,07,21,12,52,28.60
2009,07,21,12,53,28.70
2009,07,21,12,54,28.70
2009,07,21,12,55,28.70
2009,07,21,12,56,28.70
2009,07,21,12,57,28.70
2009,07,21,12,58,28.70
2009,07,21,12,59,28.70
2009,07,21,13,00,28.70
2009,07,21,13,01,28.70
2009,07,21,13,02,28.70
2009,07,21,13,03,28.80
2009,07,21,13,04,28.80
2009,07,21,13,05,28.90
2009,07,21,13,06,28.90
2009,07,21,13,07,28.90
2009,07,21,13,08,28.90
2009,07,21,13,09,29.10
2009,07,21,13,10,29.10
2009,07,21,13,11,29.10
2009,07,21,13,12,29.20
2009,07,21,13,13,29.20
2009,07,21,13,14,29.30
2009,07,21,13,15,29.30
2009,07,21,13,16,29.40
2009,07,21,13,17,29.50
2009,07,21,13,18,29.50
2009,07,21,13,19,29.60
2009,07,21,13,20,29.60
2009,07,21,13,21,29.70
2009,07,21,13,22,29.80
2009,07,21,13,23,29.80
2009,07,21,13,24,29.90
2009,07,21,13,25,30.00
2009,07,21,13,26,30.10
2009,07,21,13,27,30.20
2009,07,21,13,28,30.20
2009,07,21,13,29,30.30
2009,07,21,13,30,30.30
2009,07,21,13,31,30.40
2009,07,21,13,32,30.50
2009,07,21,13,33,30.60
2009,07,21,13,34,30.70
2009,07,21,13,35,30.80
2009,07,21,13,36,30.80
2009,07,21,13,37,30.90
2009,07,21,13,38,30.90
2009,07,21,13,39,31.00
2009,07,21,13,40,31.10
2009,07,21,13,41,31.10
2009,07,21,13,42,31.10
2009,07,21,13,43,31.10
2009,07,21,13,44,31.20
2009,07,21,13,45,31.20
2009,07,21,13,46,31.10
2009,07,21,13,47,31.10
2009,07,21,13,48,31.10
2009,07,21,13,49,31.10
2009,07,21,13,50,31.10
2009,07,21,13,51,31.00
2009,07,21,13,52,31.00
2009,07,21,13,53,31.00
2009,07,21,13,54,31.00
2009,07,21,13,55,31.10
2009,07,21,13,56,31.10
2009,07,21,13,57,31.10
2009,07,21,13,58,31.20
2009,07,21,13,59,31.20
2009,07,21,14,00,31.30
2009,07,21,14,01,31.40
2009,07,21,14,02,31.40
2009,07,21,14,03,31.50
2009,07,21,14,04,31.50
2009,07,21,14,05,31.50
2009,07,21,14,06,31.50
2009,07,21,14,07,31.50
2009,07,21,14,08,31.60
2009,07,21,14,09,31.60
2009,07,21,14,10,31.60
2009,07,21,14,11,31.60
2009,07,21,14,12,31.60
2009,07,21,14,13,31.70
2009,07,21,14,14,31.70
2009,07,21,14,15,31.80
2009,07,21,14,16,31.80
2009,07,21,14,17,31.90
2009,07,21,14,18,32.10
2009,07,21,14,19,32.20
2009,07,21,14,20,32.30
2009,07,21,14,21,32.30
2009,07,21,14,22,32.30
2009,07,21,14,23,32.30
2009,07,21,14,24,32.30
2009,07,21,14,25,32.30
2009,07,21,14,26,32.20
2009,07,21,14,27,32.20
2009,07,21,14,28,32.20
2009,07,21,14,29,32.20
2009,07,21,14,30,32.10
2009,07,21,14,31,32.10
2009,07,21,14,32,32.10
2009,07,21,14,33,32.10
2009,07,21,14,34,32.00
2009,07,21,14,35,32.00
2009,07,21,14,36,32.00
2009,07,21,14,37,32.00
2009,07,21,14,38,32.00
2009,07,21,14,39,32.00
2009,07,21,14,40,32.00
2009,07,21,14,41,32.00
2009,07,21,14,42,31.90
2009,07,21,14,43,31.90
2009,07,21,14,44,31.90
2009,07,21,14,45,31.90
2009,07,21,14,46,31.80
2009,07,21,14,47,31.80
2009,07,21,14,48,31.90
2009,07,21,14,49,31.90
2009,07,21,14,50,31.90
2009,07,21,14,51,31.90
2009,07,21,14,52,31.90
2009,07,21,14,53,31.90
2009,07,21,14,54,32.00
2009,07,21,14,55,32.10
2009,07,21,14,56,32.10
2009,07,21,14,57,32.00
2009,07,21,14,58,31.90
2009,07,21,14,59,31.80
2009,07,21,15,00,31.70
2009,07,21,15,01,31.70
2009,07,21,15,02,31.60
2009,07,21,15,03,31.60
2009,07,21,15,04,31.60
2009,07,21,15,05,31.60
2009,07,21,15,06,31.70
2009,07,21,15,07,31.70
2009,07,21,15,08,31.80
2009,07,21,15,09,31.80
2009,07,21,15,10,31.80
2009,07,21,15,11,31.80
2009,07,21,15,12,31.80
2009,07,21,15,13,31.80
2009,07,21,15,14,31.80
2009,07,21,15,15,31.70
2009,07,21,15,16,31.70
2009,07,21,15,17,31.70
2009,07,21,15,18,31.70
2009,07,21,15,19,31.70
2009,07,21,15,20,31.70
2009,07,21,15,21,31.60
2009,07,21,15,22,31.50
2009,07,21,15,23,31.50
2009,07,21,15,24,31.50
2009,07,21,15,25,31.40
2009,07,21,15,26,31.40
2009,07,21,15,27,31.40
2009,07,21,15,28,31.40
2009,07,21,15,29,31.50
2009,07,21,15,30,31.50
2009,07,21,15,31,31.40
2009,07,21,15,32,31.30
2009,07,21,15,33,31.30
2009,07,21,15,34,31.30
2009,07,21,15,35,31.20
2009,07,21,15,36,31.20
2009,07,21,15,37,31.20
2009,07,21,15,38,31.10
2009,07,21,15,39,31.20
2009,07,21,15,40,31.20
2009,07,21,15,41,31.20
2009,07,21,15,42,31.10
2009,07,21,15,43,31.10
2009,07,21,15,44,31.00
2009,07,21,15,45,30.90
2009,07,21,15,46,30.90
2009,07,21,15,47,30.90
2009,07,21,15,48,30.80
2009,07,21,15,49,30.80
2009,07,21,15,50,30.90
2009,07,21,15,51,30.80
2009,07,21,15,52,30.70
2009,07,21,15,53,30.60
2009,07,21,15,54,30.60
2009,07,21,15,55,30.60
2009,07,21,15,56,30.60
2009,07,21,15,57,30.60
2009,07,21,15,58,30.60
2009,07,21,15,59,30.60
2009,07,21,16,00,30.50
2009,07,21,16,01,30.60
2009,07,21,16,02,30.60
2009,07,21,16,03,30.60
2009,07,21,16,04,30.60
2009,07,21,16,05,30.60
2009,07,21,16,06,30.60
2009,07,21,16,07,30.50
2009,07,21,16,08,30.40
2009,07,21,16,09,30.30
2009,07,21,16,10,30.30
2009,07,21,16,11,30.30
2009,07,21,16,12,30.30
2009,07,21,16,13,30.40
2009,07,21,16,14,30.40
2009,07,21,16,15,30.50
2009,07,21,16,16,30.50
2009,07,21,16,17,30.40
2009,07,21,16,18,30.40
2009,07,21,16,19,30.30
2009,07,21,16,20,30.20
2009,07,21,16,21,30.20
2009,07,21,16,22,30.20
2009,07,21,16,23,30.20
2009,07,21,16,24,30.20
2009,07,21,16,25,30.10
2009,07,21,16,26,30.10
2009,07,21,16,27,30.10
2009,07,21,16,28,30.00
2009,07,21,16,29,30.00
2009,07,21,16,30,30.00
2009,07,21,16,31,30.00
2009,07,21,16,32,30.10
2009,07,21,16,33,30.10
2009,07,21,16,34,30.10
2009,07,21,16,35,30.20
2009,07,21,16,36,30.20
2009,07,21,16,37,30.30
2009,07,21,16,38,30.20
2009,07,21,16,39,30.20
2009,07,21,16,40,30.10
2009,07,21,16,41,30.10
2009,07,21,16,42,30.10
2009,07,21,16,43,30.10
2009,07,21,16,44,30.10
2009,07,21,16,45,30.10
2009,07,21,16,46,30.00
2009,07,21,16,47,29.90
2009,07,21,16,48,29.90
2009,07,21,16,49,29.90
2009,07,21,16,50,29.90
2009,07,21,16,51,29.90
2009,07,21,16,52,29.90
2009,07,21,16,53,29.80
2009,07,21,16,54,29.80
2009,07,21,16,55,29.80
2009,07,21,16,56,29.70
2009,07,21,16,57,29.70
2009,07,21,16,58,29.70
2009,07,21,16,59,29.70
2009,07,21,17,00,29.70
2009,07,21,17,01,29.70
2009,07,21,17,02,29.70
2009,07,21,17,03,29.70
2009,07,21,17,04,29.70
2009,07,21,17,05,29.60
2009,07,21,17,06,29.60
2009,07,21,17,07,29.50
2009,07,21,17,08,29.50
2009,07,21,17,09,29.40
2009,07,21,17,10,29.40
2009,07,21,17,11,29.40
2009,07,21,17,12,29.40
2009,07,21,17,13,29.40
2009,07,21,17,14,29.30
2009,07,21,17,15,29.30
2009,07,21,17,16,29.30
2009,07,21,17,17,29.30
2009,07,21,17,18,29.20
2009,07,21,17,19,29.20
2009,07,21,17,20,29.20
2009,07,21,17,21,29.20
2009,07,21,17,22,29.10
2009,07,21,17,24,29.20
2009,07,21,17,25,29.10
2009,07,21,17,26,29.10
2009,07,21,17,27,29.10
2009,07,21,17,28,29.00
2009,07,21,17,29,29.00